EW6939 Weather Reports


time (UTC)temp
C
wind
direction
speed
KPH
gust
KPH
rain 1hr
cm
rain 24hr
cm
rain mn
cm
humidity
%
barometer
mb
20200226011759 4 211 6.4 20.9 0.00 0.00 0.00 82 998.5
20200226010758 4 186 3.2 16.1 0.00 0.00 0.00 82 998.7
20200226005756 4 201 6.4 19.3 0.00 0.00 0.00 82 998.8
20200226004755 3 202 4.8 16.1 0.00 0.00 0.00 83 998.9
20200226003752 3 238 4.8 14.5 0.00 0.00 0.00 83 999.1
20200226002750 3 205 4.8 19.3 0.00 0.00 0.00 84 999.1
20200226001748 3 206 4.8 14.5 0.00 0.00 0.00 83 999.2
20200226000816 3 212 4.8 14.5 0.00 0.00 0.00 83 999.2
20200225235743 3 195 6.4 12.9 0.00 0.00 0.00 82 999.2
20200225234811 3 208 6.4 14.5 0.00 0.00 0.00 82 999.3
20200225233741 3 208 6.4 14.5 0.00 0.00 0.00 80 999.5
20200225232737 4 209 6.4 14.5 0.00 0.00 0.00 81 999.6
20200225231735 4 202 6.4 12.9 0.00 0.00 0.00 79 999.8
20200225230803 5 218 6.4 12.9 0.00 0.00 0.00 79 999.8
20200225225759 5 207 4.8 12.9 0.00 0.00 0.00 78 999.9
20200225224757 5 223 3.2 9.7 0.00 0.00 0.00 77 999.9
20200225223755 5 190 4.8 14.5 0.00 0.00 0.00 77 1000.1
20200225222754 5 207 6.4 19.3 0.00 0.00 0.00 77 1000.4
20200225221752 5 210 4.8 12.9 0.00 0.00 0.00 77 1000.0
20200225220749 5 245 4.8 12.9 0.00 0.00 0.00 77 999.9
20200225215747 6 208 6.4 19.3 0.00 0.00 0.00 78 999.9
20200225214745 6 231 6.4 19.3 0.00 0.00 0.00 79 1000.2
20200225213743 6 226 6.4 20.9 0.00 0.00 0.00 79 1000.2
20200225212741 6 271 6.4 19.3 0.00 0.00 0.00 79 1000.2
20200225211738 5 262 4.8 14.5 0.00 0.00 0.00 79 1000.3
20200225210735 6 238 4.8 12.9 0.00 0.00 0.00 79 1000.2
20200225205734 6 205 3.2 12.9 0.00 0.00 0.00 78 1000.1
20200225204802 6 230 4.8 12.9 0.00 0.00 0.00 78 1000.1
20200225203758 6 242 4.8 16.1 0.00 0.00 0.00 78 1000.4
20200225202757 6 221 6.4 16.1 0.00 0.00 0.00 77 1000.5
20200225201755 6 258 4.8 14.5 0.00 0.00 0.00 77 1000.8
20200225200753 6 241 9.7 25.7 0.00 0.00 0.00 77 1000.8
20200225195751 6 221 8.0 22.5 0.00 0.00 0.00 77 1000.9
20200225194753 6 261 11.3 25.7 0.00 0.00 0.00 77 1001.0
20200225193814 6 274 8.0 20.9 0.00 0.00 0.00 78 1001.2
20200225192812 6 260 8.0 19.3 0.00 0.00 0.00 79 1001.2
20200225191739 6 256 6.4 16.1 0.00 0.00 0.00 79 1001.4
20200225190737 6 209 8.0 20.9 0.00 0.00 0.00 80 1001.5
20200225185735 6 217 4.8 12.9 0.00 0.00 0.00 80 1001.6
20200225184803 6 227 4.8 14.5 0.00 0.00 0.00 79 1001.7
20200225183801 6 246 6.4 14.5 0.00 0.00 0.00 79 1001.6
20200225182800 6 211 3.2 14.5 0.00 0.00 0.00 79 1001.7
20200225181758 6 207 4.8 12.9 0.00 0.00 0.00 79 1001.6
20200225180756 6 222 3.2 9.7 0.00 0.00 0.00 79 1001.8
20200225175755 6 240 4.8 20.9 0.00 0.00 0.00 79 1001.9
20200225174753 6 210 4.8 22.5 0.00 0.00 0.00 79 1001.9
20200225173752 6 218 4.8 8.0 0.00 0.00 0.00 79 1002.0
20200225172750 6 247 4.8 12.9 0.00 0.00 0.00 79 1002.1
20200225171748 6 239 6.4 19.3 0.00 0.00 0.00 79 1002.2
20200225170747 6 231 6.4 14.5 0.00 0.00 0.00 80 1002.3
20200225165746 6 239 6.4 27.4 0.00 0.00 0.00 80 1002.4
20200225164743 6 251 6.4 19.3 0.00 0.00 0.00 80 1002.5
20200225163741 6 218 8.0 25.7 0.00 0.00 0.00 80 1002.5
20200225162740 6 218 6.4 16.1 0.00 0.00 0.00 80 1002.6
20200225161737 6 252 6.4 22.5 0.00 0.00 0.00 79 1002.7
20200225160734 6 229 6.4 22.5 0.00 0.00 0.00 79 1002.8
20200225155733 7 216 8.0 20.9 0.00 0.00 0.00 78 1003.0
20200225154801 7 216 8.0 27.4 0.00 0.00 0.00 78 1002.9
20200225153758 7 221 11.3 27.4 0.00 0.00 0.00 78 1003.1
20200225152756 7 269 11.3 30.6 0.00 0.00 0.00 77 1003.1
20200225151754 7 235 8.0 30.6 0.00 0.00 0.00 77 1003.3
20200225150753 7 240 8.0 19.3 0.00 0.00 0.00 77 1003.3
20200225145751 7 240 11.3 25.7 0.00 0.00 0.00 77 1003.4
20200225144754 7 264 8.0 20.9 0.00 0.00 0.00 76 1003.5
20200225143751 7 260 9.7 22.5 0.00 0.00 0.00 76 1003.5
20200225142744 7 242 8.0 22.5 0.00 0.00 0.00 75 1003.5
20200225141743 7 259 9.7 22.5 0.00 0.00 0.00 75 1003.5
20200225140811 7 210 8.0 20.9 0.00 0.00 0.00 74 1003.7
20200225135810 8 262 11.3 25.7 0.00 0.00 0.00 72 1003.9
20200225134738 8 267 12.9 27.4 0.00 0.00 0.00 72 1003.9
20200225133806 8 276 12.9 25.7 0.00 0.00 0.00 71 1003.9
20200225132801 8 262 9.7 20.9 0.00 0.00 0.00 71 1003.8
20200225131759 8 267 14.5 25.7 0.00 0.00 0.00 70 1003.9
20200225130757 8 281 11.3 25.7 0.00 0.00 0.00 68 1004.0
20200225125755 9 292 8.0 20.9 0.00 0.00 0.00 68 1004.1
20200225124752 9 259 8.0 19.3 0.00 0.00 0.00 67 1004.1
20200225123752 9 274 11.3 25.7 0.00 0.00 0.00 67 1004.2
20200225122818 9 295 11.3 20.9 0.00 0.00 0.00 66 1004.2
20200225121745 9 265 19.3 40.2 0.00 0.00 0.00 64 1004.3
20200225120744 10 268 11.3 25.7 0.00 0.00 0.00 64 1004.4
20200225115741 10 270 12.9 27.4 0.00 0.00 0.00 63 1004.5
20200225114810 10 271 12.9 25.7 0.00 0.00 0.00 62 1004.5
20200225113737 10 282 12.9 25.7 0.00 0.00 0.00 60 1004.8
20200225112735 10 266 11.3 20.9 0.00 0.00 0.00 59 1004.8
20200225111803 10 245 9.7 20.9 0.00 0.00 0.00 58 1005.0
20200225110801 10 269 8.0 16.1 0.00 0.00 0.00 57 1005.2
20200225105800 10 272 11.3 22.5 0.00 0.00 0.00 56 1005.2
20200225104828 10 273 9.7 22.5 0.00 0.00 0.00 56 1005.3
20200225103757 10 263 11.3 20.9 0.00 0.00 0.00 55 1005.3
20200225102755 10 246 6.4 19.3 0.00 0.00 0.00 56 1005.3
20200225101758 10 267 11.3 25.7 0.00 0.00 0.00 56 1005.5
20200225100751 9 244 6.4 16.1 0.00 0.00 0.00 57 1005.5
20200225095750 9 243 8.0 19.3 0.00 0.00 0.00 57 1005.5
20200225094749 9 240 4.8 19.3 0.00 0.00 0.00 57 1005.6
20200225093747 9 251 6.4 32.2 0.00 0.00 0.00 57 1005.7
20200225092745 9 228 8.0 27.4 0.00 0.00 0.00 57 1005.8
20200225090741 9 231 8.0 19.3 0.00 0.00 0.00 57 1006.0
20200225085740 9 241 11.3 22.5 0.00 0.00 0.00 57 1006.1
20200225084738 10 233 6.4 14.5 0.00 0.00 0.00 58 1006.1
20200225083736 10 296 4.8 20.9 0.00 0.00 0.00 59 1006.1
20200225082805 10 246 6.4 16.1 0.00 0.00 0.00 59 1006.4
20200225081803 9 249 6.4 12.9 0.00 0.00 0.00 61 1006.4
20200225080800 8 226 3.2 8.0 0.00 0.00 0.00 62 1006.4
20200225075758 8 190 3.2 9.7 0.00 0.00 0.00 62 1006.5
20200225074754 7 207 3.2 9.7 0.00 0.00 0.00 63 1006.5
20200225073752 7 202 3.2 8.0 0.00 0.00 0.00 61 1006.5
20200225072751 7 230 1.6 8.0 0.00 0.00 0.00 61 1006.7
20200225071749 7 203 4.8 16.1 0.00 0.00 0.00 60 1006.7
20200225070748 7 224 3.2 14.5 0.00 0.00 0.00 60 1006.8
20200225065746 7 186 3.2 8.0 0.00 0.00 0.00 60 1006.8
20200225064744 8 201 4.8 12.9 0.00 0.00 0.00 60 1006.7
20200225063743 8 219 3.2 12.9 0.00 0.00 0.00 61 1006.7
20200225062741 8 220 4.8 14.5 0.00 0.00 0.00 61 1006.7
20200225062307 8 292 3.2 6.4 0.00 0.00 0.00 61 1006.5
20200225024245 8 209 4.8 9.7 0.00 0.00 0.00 66 1007.6
20200225023241 8 199 6.4 9.7 0.00 0.00 0.00 66 1007.7
20200225022240 8 187 3.2 8.0 0.00 0.00 0.00 66 1007.9
20200225021307 8 216 3.2 6.4 0.00 0.00 0.00 66 1008.2
20200225020305 8 212 3.2 8.0 0.00 0.00 0.00 66 1008.3
20200225015234 8 213 3.2 9.7 0.00 0.00 0.00 66 1008.5
20200225014302 8 208 3.2 6.4 0.00 0.00 0.00 66 1008.5
20200225013257 8 210 1.6 6.4 0.00 0.00 0.00 66 1008.7